Location: Be Tobo
(6.6442°N, 10.6239°W)
Time: 01:32:41
(UTC+00:00)

ARIANE 5 R/B - Pass Details

Date: 18 September 2020
Orbit: 286 x 34066 km, 2.0° (Epoch: 20 October)

Event Time Altitude Azimuth Distance (km) Brightness Sun altitude
Rises 12:11:09 0° 269° (W) 14,291 8.9 81.9°
Reaches altitude 10° 12:22:18 10° 268° (W) 15,941 9.3 83.8°
Drops below altitude 10° 17:44:09 10° 267° (W) 36,987 14.3 13.1°
Enters shadow 21:17:16 47° 212° (SSW) 1,835 4.4 -39.7°
